COSMOS 1805

Satellite information

Favourite Embed

Satellite Type and Status

PAYLOADIN ORBIT

Key statistics

Satellite COSMOS 1805 at a glance.

Uptime

14249

Days in orbit

Revolutions

≈ 15.4

Per day

Orbit

LEO

Low Earth Orbit

Inclination

82.5

Latest

Satellite identification and parameters

Extended collection of information and parameters for COSMOS 1805.

Object identification

Identified? True

Debris? False

Object name: COSMOS 1805

International designator: 1986-097A

Object number (NORAD): 17191

Object ID (CCSDS): 17191

Country: COMMONWEALTH OF INDEPENDENT STATES (CIS)

Current information (Y/N): Y

RCS size: LARGE

Orbital parameters

Period: 93.261 minutes

Inclination: 82.4605 deg

SMA: 6812.291 km

Apoapsis: 436.489 km

Periapsis: 431.824 km

RAAN: 186.1712 deg

Eccentricy: 0.00034244

Argument of periapsis: 80.3419 deg

Mean anomaly: 279.8216 deg

Mean motion: 15.44055609 rev/day

Mean motion (dot): 0.0002066 rev/day2

B* drag term: 0.00045120544 1/REarth

Two-line elements (TLE)

Creation date: Dec. 12, 2025, 10:14 a.m.

Reference frame: TEME

Reference center: EARTH

Epoch: Dec. 12, 2025, 6:34 a.m. UTC

TLE line 0: 0 COSMOS 1805

TLE line 1: 1 17191U 86097A 25346.27376586 .00020660 00000-0 45121-3 0 9993

TLE line 2: 2 17191 82.4605 186.1712 0003424 80.3419 279.8216 15.44055609133629

Live tracking on map

Real-time ground track for satellite COSMOS 1805.

In-orbit conjunctions

There are no conjunctions computed for COSMOS 1805, at the moment. Check back to stay up to date, as we update our databases every day.

Go to all conjunctions

Associated space launch

Tselina-R series ELINT satellite

COSMOS 1805 was lifted into orbit during the mission ‘Tsiklon-3 | Tselina-R 1’, on board a Tsiklon-3 space rocket.

The launch took place on Dec. 10, 1986, 7:30 a.m. from 32/2.

For more information about the launch, click the button.

Launch to space Tsiklon-3 | Tselina-R 1
Tsiklon-3 | Tselina-R 1

Agency: N/A

Status: Launch Successful

Launch date: Dec. 10, 1986, 7:30 a.m. UTC

Rocket: Tsiklon-3

Launch pad: 32/2

Location: Plesetsk Cosmodrome, Russian Federation

...

Latest news about this satellite

There are no fresh news available about this satellite. Check back as we update our databases every day.


Newsletter sign-up

Weekly statistics, charts and insights to help you stay on top of the space industry.